This demonstration page uses our WeatherBlox Daily Observations layout. Learn more.

Left ArrowRight Arrow

36.17497, -115.13722

Hourly Observations for October 26, 2021

Temp ( °F °C ) Dew Point ( °F °C ) Humidity (%) Winds ( mph kmh ) Pressure ( in mb ) Visibility ( mi km ) Precip ( " mm )
12:53 am 00:53 Clear 56 13.3 37 2.8 49 49 WNW 9 15 29.82 1010 10 16 N/A
1:53 am 01:53 Clear 57 13.9 34 1.1 42 42 NNW 16 26 29.83 1010 10 16 N/A
2:53 am 02:53 Clear 56 13.3 34 1.1 44 44 NNW 16 26 29.86 1011 10 16 N/A
3:53 am 03:53 Clear 56 13.3 33 0.6 42 42 NNW 16 26 29.88 1012 10 16 N/A
4:53 am 04:53 Clear 55 12.8 32 undefined 42 42 NNW 15 24 29.90 1013 10 16 N/A
5:53 am 05:53 Clear 55 12.8 32 undefined 42 42 NW 23 37 29.93 1014 10 16 N/A
6:53 am 06:53 Clear 54 12.2 32 undefined 43 43 NW 17 28 29.96 1015 10 16 N/A
7:53 am 07:53 Sunny 56 13.3 32 undefined 40 40 NNW 17 28 30.00 1016 10 16 N/A
8:53 am 08:53 Sunny 59 15 31 -0.6 35 35 NW 18 30 30.02 1017 10 16 N/A
9:53 am 09:53 Sunny 62 16.7 29 -1.7 29 29 NNW 18 30 30.04 1017 10 16 N/A
10:53 am 10:53 Sunny 64 17.8 28 -2.2 26 26 NNW 18 30 30.06 1018 10 16 N/A
11:53 am 11:53 Sunny 66 18.9 25 -3.9 21 21 N 18 30 30.07 1018 10 16 N/A
12:53 pm 12:53 Sunny 68 20 20 -6.7 16 16 NW 20 31 30.06 1018 10 16 N/A
1:53 pm 13:53 Sunny 69 20.6 23 -5 17 17 NW 17 28 30.05 1018 10 16 N/A
2:53 pm 14:53 Sunny 68 20 26 -3.3 21 21 NW 22 35 30.05 1018 10 16 N/A
3:53 pm 15:53 Sunny 69 20.6 26 -3.3 20 20 NNW 16 26 30.05 1018 10 16 N/A
4:53 pm 16:53 Sunny 69 20.6 26 -3.3 20 20 N 10 17 30.07 1018 10 16 N/A
5:53 pm 17:53 Clear 67 19.4 26 -3.3 21 21 N 7 11 30.08 1019 10 16 N/A
6:53 pm 18:53 Clear 65 18.3 27 -2.8 24 24 N N/A 30.10 1019 10 16 N/A
7:53 pm 19:53 Clear 63 17.2 27 -2.8 26 26 ENE 3 6 30.12 1020 10 16 N/A
8:53 pm 20:53 Clear 61 16.1 28 -2.2 29 29 NE 3 6 30.13 1020 10 16 N/A
9:53 pm 21:53 Clear 60 15.6 29 -1.7 31 31 W 3 6 30.15 1021 10 16 N/A
10:53 pm 22:53 Clear 57 13.9 29 -1.7 34 34 WNW 7 11 30.15 1021 10 16 N/A
11:53 pm 23:53 Clear 58 14.4 31 -0.6 36 36 N N/A 30.14 1021 10 16 N/A

Powered by AerisWeather